Погода в Мценске

Погода в Мценске : погода сейчас, прогноз погоды и архив. Всё, что Вы хотите узнать о погоде в Мценске!

Поиск расширенной информации на нашем сайте:

Другие новости

Новости СМИ2

Главная страница сайта

Новости сайта

03.07.2017

Напоминаем, что на нашем специализированном сайте Метеоцентр.Азия вы можете получить высокодетализированные автоматические прогнозы погоды по пунктам России, СНГ и мира в авиационном формате (включающие направление и скорость ветра, видимость, явления погоды, количество и форму облачности, нижнюю и верхнюю границу облачности).


Погода в Мценске - сегодня

Время (UTC), дата Ветер
(°,м/с) 
Видим.   Явления Облачность Т
(°С)
Тd
(°С)
f(%) Тe
(°С)
Pmin
(гПа)
dP
(гПа)
Po
(мм)
O2
(г/м3)
Тmin Tmax R s Состояние
почвы
03 15.08.17 020 (С) 6000 м  дымка  10/0 средняя 
[Ac und]
+19.4 +18.4 94 +35  1020.1  1.2  747  277  +18.4    0.1     
06 15.08.17 040 (СВ) 12000 м    10/10 600 м 
[Sc]
+20.2 +18.1 88 +35  1021.6  1.6  749  277  +18.4    0.1     
09 15.08.17 020 (С) 20000 м    10/10 600 м 
[Sc]
+22.5 +18.4 78 +38  1022  0.5  749  275           
12 15.08.17 030 (СВ) 27000 м    8/8 600 м 
[Sc]
+22.2 +16.6 71 +34  1022.9  0.8  750  276           
15 15.08.17 020 (С) 28000 м    9/8 600 м средняя 
[Sc|Ac trans]
+23 +15.5 63 +33  1022.8  750  275           
21 15.08.17 350 (С) 16000 м    ясно 
+15.8 +12.9 83 +22  1024.8  0.7  751  283           
00 16.08.17 360 (С) 11000 м    ясно 
+13.8 +11.9 88 +19  1025.5  0.5  751  286           
03 16.08.17 020 (С) 6000 м  дымка  3/0 средняя 
[Ac trans]
+12.8 +11.7 93 +17  1026  0.3  751  287  +12.7         
06 16.08.17 020 (С) 18000 м    3/0 верхняя 
[Ci fib]
+19 +14.5 75 +28  1026  0.6  752  280  +12.7         
09 16.08.17 050 (СВ) 30000 м    8/8 600 м кучево-дожд. 
[Cb calv]
+22.3 +14.3 61 +30  1025.8  752  277           
12 16.08.17 050 (СВ) 35000 м    6/6 600 м 
[Cu med, cong]
+24.5 +13.6 51 +31  1024.5  -1  751  275           
15 16.08.17 040 (СВ) 35000 м    3/0 верхняя 
[Ci fib]
+24.8 +13.8 50 +31  1023.7  -0.7  750  274           
18 16.08.17 360 (С) 28000 м    4/4 600 м 
[Sc]
+19.3 +14.3 73 +28  1023.9  -0.3  750  279    +25.4       
21 16.08.17 тихо ()   9000 м  дымка  ясно 
+16.4 +14.7 90 +25  1025.2  751  282           
00 17.08.17 тихо ()   3500 м  дымка  ясно 
+14.7 +14 96 +22  1025.3  751  284           
03 17.08.17 030 (СВ) 4500 м  в посл. час ливневой дождь  9/9 600 м кучево-дожд. 
[Cb calv]
+15.6 +14.7 94 +25  1025.2  751  283  +14.5    0.0     
06 17.08.17 050 (СВ) 17000 м  {ливн. осадки}  8/8 600 м кучево-дожд. 
[Cb calv]
+18.8 +16.1 84 +31  1024.7  -0.2  751  280  +14.5    0.0     
09 17.08.17 100 (В) 35000 м    4/1 600 м средняя, верхняя 
[Cu hum|Ac trans|Ci fib]
+25.3 +16.4 58 +36  1024.2  751  273           
12 17.08.17 150 (ЮВ) 40000 м    5/5 600 м 
[Cu med, cong]
+28.2 +13.4 40 +34  1023.4  -0.6  750  271           
15 17.08.17 140 (ЮВ) 35000 м    3/3 600 м средняя 
[Cu hum|Ac trans]
+27.1 +14.7 47 +35  1022.7  -0.8  750  272           
18 17.08.17 тихо ()   30000 м    3/0 средняя, верхняя 
[Ac trans|Ci fib]
+20.6 +15.2 71 +30  1023.3  0.2  750  278    +28.5       
21 17.08.17 тихо ()   18000 м    ясно 
+17.3 +14.3 83 +25  1024.1  0.4  750  281           
00 18.08.17 тихо ()   12000 м    ясно 
+15.6 +13.8 89 +22  1024.5  0.3  750  283           
03 18.08.17 тихо ()   7000 м  дымка  5/3 600 м верхняя 
[Sc|Ci fib]
+14.5 +13.4 93 +21  1024.7  0.1  751  284  +14.3         
06 18.08.17 120 (ЮВ) 28000 м    6/0 средняя, верхняя 
[Ac trans|Ci fib]
+20.4 +14.6 69 +28  1024.2  751  278  +14.3         
Время (UTC), дата Ветер
(°,м/с) 
Видим.   Явления Облачность Т
(°С)
Тd
(°С)
f(%) Тe
(°С)
Pmin
(гПа)
dP
(гПа)
Po
(мм)
O2
(г/м3)
Тmin Tmax R s Состояние
почвы

Для получения пояснительной информации подведите курсор к названию столбца.

ПОГОДА в Мценске - архив

Всё, что Вы хотите узнать о погоде в Мценске - удобно и подробно!

Выберите нужную дату (начиная с 1 января 2015* года) и нажмите кнопку "Найти".
Будут отображены архивные сводки погоды по пункту Мценск, начиная с указанной даты.


Отображать данные в формате CSV (для использования в таблицах Excel)


Внимание! Наш архив погоды предназначен исключительно для личного некоммерческого использования в познавательных целях. Если Вам необходимы официальные справки о состоянии погоды (для производственных, юридических, коммерческих и т.п. целей), обращайтесь в органы Росгидромета.

*Примечание: данная дата относится к архиву по метеостанциям СССР (Россия, СНГ, Балтия).
Архив по метеостанциям Зарубежной Европы и Азии (кроме Китая) хранится 10 дней, по другим регионам земного шара (Китай, Африка, Америка, Австралия, Океания) - 1 день.

Мценск - район местоположения метеостанции


Название, широта, долгота, высота метеостанции:
Мценск 53.4°ш. 36.5°д. 201 м над ур. моря [Российская Федерация]

Дополнительная информация

В oтличие oт бoльшинства пoгoдных сайтoв мы публикуем пoдрoбную метеoинфoрмацию в детальнoм прoфессиoнальнoм фoрмате.

Характеристики температуры и влажнoсти вoздуха измеряются на высoте 2 м в тени вдали oт зданий и деревьев.
Скoрoсть ветра измеряется на высoте 10 м (на урoвне рoста челoвека скoрoсть ветра ниже в 1.5-2 раза). Если метеoстанция нахoдится в гoрoде или в лесу, тo скoрoсть ветра занижена на 2-4 м/с пo сравнению с oткрытым местoм. Скoрoсть ветра над акватoриями крупных рек и oзёр, а также на вершинах хoлмoв на 2-5 м/с выше, чем в oбычных услoвиях.
Атмoсфернoе давление в разных тoчках местнoсти мoжет значительнo oтличаться oт давления на метеoстанции, в зависимoсти oт услoвий рельефа (при пoдъёме на 10 м давление пoнижается примернo на 1 мм рт.ст.).